PPR-pyyntö

Ennakkolupa on pakollinen lentoonlähtöjä ja laskuja varten. Pyydä ennakkolupa tästä.

Laskukierrosvaraus

Tee ensin PPR-pyyntö, sitten vasta laskukierrosvaraus. Hinta 5 € / 15 min.

Aerodrome Info

Updated 23 APR 2018 21:34 LT

  • Water ponds on TWYs and APNs.
  • Bird activity, especially during afternoons, single low flying or sometimes also flocks. Seagull/crow size 0.5-1.5 kg.
  • 2 Deer sighted west of the runway
  • Preferred runway RWY

Contact duty officer at +358 20 7545 129 for more information.

Weather


Helsinki Malmi lentokenttä
AWS ILHF 240950Z AUTO 20008KT 9999 OVC005 07/06 Q1001=



Helsinki-Malmin lentoasema

Tervetuloa Helsinki-Malmin lentokentälle

Malmin lentokenttäyhdistys ry toimii Suomen vilkkaimman yleisilmailukentän, Helsinki-Malmin operaattorina. Yhdistyksen toiminnassa ovat mukana kentällä toimivat yhteisöt sekä suuri joukko yleisilmailijoita.

Malmin lentokentän toiminta rahoitetaan jäsen- ja kausikorttimaksuin. Ole mukana jatkamassa Malmin lentotoimintaa ja liity jäseneksi!